"Pseudo-MPEC" for ZG811E7

Created 2018 Apr 18 16:18:08 UT using Find_Orb

Click here for an explanation of pseudo-MPECs

 
 Astrometry: 
     ZG811E7  C2018 04 14.29621 13 04 23.02 +06 00 12.3          20.5 GUNEOCPG96
     ZG811E7  C2018 04 14.30136 13 04 22.67 +06 00 16.3          21.2 GUNEOCPG96
     ZG811E7  C2018 04 14.30652 13 04 22.37 +06 00 22.8          21.5 GUNEOCPG96
     ZG811E7  C2018 04 14.31167 13 04 22.00 +06 00 27.3          21.1 GUNEOCPG96
     ZG811E7  C2018 04 14.41031 13 04 16.51 +06 02 14.5          21.2 GUNEOCPI52
     ZG811E7  C2018 04 14.41693 13 04 16.12 +06 02 22.3          21.6 GUNEOCPI52
     ZG811E7  C2018 04 15.aAstrometryAnli$cSs=(?Y$@yFka^\'!k:A6+RxFMl8=JUJwr,H01
     ZG811E7  C2018 04 15,06+0\F3@(nuM.=noredacted;;:Ba-91b=/5I%u3pD,'1c%!7h=H01
     ZG811E7  C2018 04 15T\fpPcW]VCtRiw1d1'jUgKfm5EngfZ#Rsee*TobkL_Ek4wx.^CcKH01
     ZG811E7  C2018 04 15n)?])3cpyDN,((!DM')s'ta%w`35)Q`Q4%5qmxhFvR%x.I%NEOCPH01
     ZG811E7  C2018 04 15.22935 13 03 32.89 +06 16 54.0          20.4 GUNEOCPI52
     ZG811E7  C2018 04 15.23190 13 03 32.73 +06 16 57.6          20.9 GUNEOCPI52
     ZG811E7  C2018 04 15.23442 13 03 32.58 +06 17 00.3          21.2 GUNEOCPI52
     ZG811E7  C2018 04 15.23694 13 03 32.45 +06 17 03.0          21.0 GUNEOCPI52
     ZG811E7  C2018 04 17.92441 13 01 10.85 +07 03 38.4          20.8 VSNEOCP033
     ZG811E7  C2018 04 17.92816 13 01 10.64 +07 03 42.2          20.7 VSNEOCP033
     ZG811E7  C2018 04 17.93191 13 01 10.43 +07 03 46.0          20.9 VSNEOCP033
     ZG811E7  C2018 04 17.93567 13 01 10.24 +07 03 49.8          20.5 VSNEOCP033
     ZG811E7  C2018 04 18.07137 13 01 03.00 +07 06 06.9          21.0 VSNEOCP033
     ZG811E7  C2018 04 18.07511 13 01 02.78 +07 06 10.5          21.2 VSNEOCP033
     ZG811E7  C2018 04 18.07887 13 01 02.58 +07 06 14.4          21.1 VSNEOCP033
     ZG811E7  C2018 04 18.08262 13 01 02.38 +07 06 18.5          20.7 VSNEOCP033
     ZG811E7  C2018 04 18.08638 13 01 02.19 +07 06 22.5          20.7 VSNEOCP033

Station data:
(033) Karl Schwarzschild Observatory, Tautenburg  (N50.980140 E11.711240)
   Germany. 1.3-m Schmidt.
(G96) Mt. Lemmon Survey  (N32.442754 W110.788720)  US/Arizona.  Observers E.
   J. Christensen, A. R. Gibbs, A. D. Grauer, R. E. Hill, J. A. Johnson, R.
   A. Kowalski, S. M. Larson, F. C. Shelly. 1.5-m reflector + CCD.
(H01) Magdalena Ridge Observatory, Socorro  (N33.985151 W107.189200)  US/New
   Mexico.  Observers W. H. Ryan, E. V. Ryan. Measurer W. H. Ryan. 2.4-m
   f/8.9 reflector + CCD.
(I52) Steward Observatory, Mt. Lemmon Station  (N32.442547 W110.788920)
   US/Arizona.

Orbital elements:  ZG811E7
   Perihelion 2016 Dec 26.629865 TT = 15:07:00 (JD 2457749.129865)
Epoch 2018 Apr 18.0 TT = JDT 2458226.5   Earth MOID: 0.8132   AutoNEOCP
M 169.30407                         (J2000 ecliptic)
n   0.35465996     Peri.  206.29875
a   1.97664164     Node   183.00252
e   0.0877287      Incl.   23.64314
P   2.78           H   18.6     G   0.15   q 1.80323343  Q 2.15004984
From 23 observations 2018 Apr. 14-18; mean residual 0".39
Residuals in arcseconds: 
180414 G96  .97+  1.2+    180415 H01  .25-  .30+    180417 033  .04+  .15-    
180414 G96  .11+  .37-    180415 H01  .34-  .24+    180417 033  .21+  .16-    
180414 G96  .01+  .54+    180415 I52  .12+  .80-    180418 033  .23+  .25-    
180414 G96  1.2-  .54-    180415 I52  .14-  .08+    180418 033  .10-  .42-    
180414 I52  .02+  .00     180415 I52  .27-  .08+    180418 033  .12-  .31-    
180414 I52  .27-  .66+    180415 I52  .10-  .09+    180418 033  .15-  .01+    
180415 H01  .22-  .24+    180417 033  .30+  .14-    180418 033  .03-  .22+    
180415 H01  .41-  .28+    180417 033  .17+  .15-    

Ephemerides (geocentric):
Date (UTC) HH   RA              Dec         delta   r     elong  mag
---- -- -- --  ------------   ------------  ------ ------ -----  ---
2018 04 18 16  13 00 32.692   +07 16 10.55  1.1808 2.1476 158.7 21.3
2018 04 18 17  13 00 30.567   +07 16 52.13  1.1809 2.1476 158.7 21.3
2018 04 18 18  13 00 28.443   +07 17 33.67  1.1811 2.1476 158.6 21.3
2018 04 18 19  13 00 26.321   +07 18 15.18  1.1812 2.1476 158.6 21.3
2018 04 18 20  13 00 24.200   +07 18 56.64  1.1814 2.1476 158.5 21.3
2018 04 18 21  13 00 22.081   +07 19 38.08  1.1816 2.1476 158.5 21.3
2018 04 18 22  13 00 19.964   +07 20 19.47  1.1817 2.1477 158.4 21.3
2018 04 18 23  13 00 17.848   +07 21 00.83  1.1819 2.1477 158.4 21.3
2018 04 19 00  13 00 15.733   +07 21 42.15  1.1821 2.1477 158.3 21.3
2018 04 19 01  13 00 13.620   +07 22 23.43  1.1822 2.1477 158.3 21.3
2018 04 19 02  13 00 11.509   +07 23 04.67  1.1824 2.1477 158.2 21.3
2018 04 19 03  13 00 09.399   +07 23 45.88  1.1826 2.1477 158.2 21.3
2018 04 19 04  13 00 07.291   +07 24 27.05  1.1827 2.1477 158.2 21.3
2018 04 19 05  13 00 05.184   +07 25 08.18  1.1829 2.1477 158.1 21.3
2018 04 19 06  13 00 03.079   +07 25 49.28  1.1831 2.1477 158.1 21.3
2018 04 19 07  13 00 00.976   +07 26 30.33  1.1832 2.1477 158.0 21.3
2018 04 19 08  12 59 58.874   +07 27 11.35  1.1834 2.1477 158.0 21.3
2018 04 19 09  12 59 56.774   +07 27 52.34  1.1836 2.1477 157.9 21.3
2018 04 19 10  12 59 54.675   +07 28 33.28  1.1837 2.1477 157.9 21.3
2018 04 19 11  12 59 52.578   +07 29 14.19  1.1839 2.1477 157.8 21.3
2018 04 19 12  12 59 50.483   +07 29 55.05  1.1841 2.1477 157.8 21.3
2018 04 19 13  12 59 48.389   +07 30 35.89  1.1843 2.1478 157.7 21.3
2018 04 19 14  12 59 46.297   +07 31 16.68  1.1844 2.1478 157.7 21.3
2018 04 19 15  12 59 44.207   +07 31 57.43  1.1846 2.1478 157.6 21.3
2018 04 19 16  12 59 42.118   +07 32 38.15  1.1848 2.1478 157.6 21.3
2018 04 19 17  12 59 40.031   +07 33 18.83  1.1849 2.1478 157.5 21.3
2018 04 19 18  12 59 37.945   +07 33 59.47  1.1851 2.1478 157.5 21.3
2018 04 19 19  12 59 35.862   +07 34 40.07  1.1853 2.1478 157.4 21.3
2018 04 19 20  12 59 33.779   +07 35 20.64  1.1855 2.1478 157.4 21.3
2018 04 19 21  12 59 31.699   +07 36 01.16  1.1856 2.1478 157.4 21.3
2018 04 19 22  12 59 29.620   +07 36 41.65  1.1858 2.1478 157.3 21.3
2018 04 19 23  12 59 27.543   +07 37 22.10  1.1860 2.1478 157.3 21.3
2018 04 20 00  12 59 25.468   +07 38 02.51  1.1862 2.1478 157.2 21.3
2018 04 20 01  12 59 23.394   +07 38 42.88  1.1863 2.1478 157.2 21.3
2018 04 20 02  12 59 21.322   +07 39 23.22  1.1865 2.1478 157.1 21.3
2018 04 20 03  12 59 19.251   +07 40 03.51  1.1867 2.1478 157.1 21.3
2018 04 20 04  12 59 17.183   +07 40 43.77  1.1869 2.1479 157.0 21.3
2018 04 20 05  12 59 15.116   +07 41 23.99  1.1871 2.1479 157.0 21.3
2018 04 20 06  12 59 13.050   +07 42 04.17  1.1872 2.1479 156.9 21.3
2018 04 20 07  12 59 10.987   +07 42 44.31  1.1874 2.1479 156.9 21.3
2018 04 20 08  12 59 08.925   +07 43 24.41  1.1876 2.1479 156.8 21.3
2018 04 20 09  12 59 06.865   +07 44 04.48  1.1878 2.1479 156.8 21.3
2018 04 20 10  12 59 04.807   +07 44 44.50  1.1880 2.1479 156.7 21.3
2018 04 20 11  12 59 02.750   +07 45 24.49  1.1881 2.1479 156.7 21.3
2018 04 20 12  12 59 00.695   +07 46 04.43  1.1883 2.1479 156.6 21.3
2018 04 20 13  12 58 58.642   +07 46 44.34  1.1885 2.1479 156.6 21.3
2018 04 20 14  12 58 56.591   +07 47 24.21  1.1887 2.1479 156.5 21.3
2018 04 20 15  12 58 54.541   +07 48 04.04  1.1889 2.1479 156.5 21.3